This demonstration page uses our WeatherBlox Daily Observations layout. Learn more.

41.55636, -103.73856

Hourly Observations for January 15, 2019

Temp ( °F °C ) Dew Point ( °F °C ) Humidity (%) Winds ( mph kmh ) Pressure ( in mb ) Visibility ( mi km ) Precip ( " mm )
12:53 am 00:53 Clear 21 -6.1 12 -11.1 68 68 NNW 8 13 30.15 1021 10 16.09344 0 0
1:53 am 01:53 Clear 19 -7.2 12 -11.1 74 74 NW 9 15 30.15 1021 10 16.09344 0 0
2:53 am 02:53 Clear 18 -7.8 11 -11.7 74 74 WSW 3 6 30.12 1020 10 16.09344 0 0
3:53 am 03:53 Clear 21 -6.1 13 -10.6 71 71 NW 9 15 30.12 1020 10 16.09344 0 0
4:53 am 04:53 Clear 20 -6.7 12 -11.1 71 71 NW 8 13 30.12 1020 10 16.09344 0 0
5:53 am 05:53 Clear 21 -6.1 12 -11.1 68 68 NW 7 11 30.12 1020 10 16.09344 0 0
6:53 am 06:53 Clear 22 -5.6 12 -11.1 66 66 NW 7 11 30.15 1021 10 16.09344 0 0
7:53 am 07:53 Sunny 23 -5 13 -10.6 65 65 NW 7 11 30.18 1022 10 16.09344 0 0
8:53 am 08:53 Sunny 31 -0.6 16 -8.9 54 54 NW 7 11 30.18 1022 10 16.09344 0 0
9:53 am 09:53 Sunny 38 3.3 17 -8.3 43 43 NW 9 15 30.18 1022 10 16.09344 0 0
10:53 am 10:53 Sunny 43 6.1 19 -7.2 38 38 NW 8 13 30.15 1021 10 16.09344 0 0
11:53 am 11:53 Sunny 49 9.4 22 -5.6 35 35 WNW 12 19 30.12 1020 10 16.09344 0 0
12:53 pm 12:53 Sunny 53 11.7 22 -5.6 30 30 WNW 10 17 30.06 1018 10 16.09344 0 0
1:53 pm 13:53 Sunny 53 11.7 20 -6.7 27 27 W 8 13 30.06 1018 10 16.09344 0 0
2:53 pm 14:53 Sunny 54 12.2 22 -5.6 29 29 WSW 8 13 30.06 1018 10 16.09344 0 0
3:53 pm 15:53 Sunny 52 11.1 17 -8.3 25 25 N 7 11 30.09 1019 10 16.09344 0 0
4:53 pm 16:53 Clear 37 2.8 17 -8.3 44 44 NNE 9 15 30.12 1020 10 16.09344 0 0
5:53 pm 17:53 Clear 34 1.1 17 -8.3 50 50 ENE 6 9 30.15 1021 10 16.09344 0 0
6:53 pm 18:53 Clear 32 0 17 -8.3 54 54 ESE 7 11 30.15 1021 10 16.09344 0 0
7:53 pm 19:53 Clear 28 -2.2 16 -8.9 60 60 E 3 6 30.15 1021 10 16.09344 0 0
8:53 pm 20:53 Clear 24 -4.4 15 -9.4 68 68 E 6 9 30.15 1021 10 16.09344 0 0
9:53 pm 21:53 Clear 24 -4.4 15 -9.4 68 68 ENE 5 7 30.15 1021 10 16.09344 0 0
10:53 pm 22:53 Clear 24 -4.4 16 -8.9 71 71 E 6 9 30.12 1020 10 16.09344 0 0
11:53 pm 23:53 Clear 20 -6.7 14 -10 78 78 E 7 11 30.09 1019 10 16.09344 0 0

Powered by AerisWeather